User: anonymous   Login
Location: Unspecified
(0.0000°N, 0.0000°E)
Time: 18:08:18
(UTC+00:00)
Language:

STARLINK-32398 - Orbit

View from above orbital plane
View from above orbital plane
View from above satellite
View from above satellite

Ground track
Ground track

The orbit is defined by the following mean orbital elements,

1 61624U          26145.50279137 +.00000000 +00000-0 +43606-4 0 00007
2 61624  43.0024  80.7329 0001166 269.8253  90.2465 15.27581693    05
Epoch (UTC): 25 May 2026 12:04:01
Eccentricity: 0.0001166
inclination: 43.0024°
perigee height: 482 km
apogee height: 484 km
right ascension of ascending node: 80.7329°
argument of perigee: 269.8253°
revolutions per day: 15.27581693
mean anomaly at epoch: 90.2465°

The dashed part of the orbit path shows where the satellite is in the earth's shadow,  

DLR